Defiance, OH

5:24 AM EDT on June 25, 2017 (GMT -0400)
Defiance Memorial

Weather History for KDFI - February, 2014

Change the Weather History Date:

Monday, February 3, 2014

  Actual Average Record
Temperature  
Mean Temperature 16 °F -  
Max Temperature 24 °F 32 °F 59 °F (2016)
Min Temperature 8 °F 15 °F -15 °F (1951)
Degree Days  
Heating Degree Days 49    
Moisture  
Dew Point 8 °F    
Average Humidity 73    
Maximum Humidity 84    
Minimum Humidity 57    
Precipitation  
Precipitation 0.00 in - - ()
Sea Level Pressure  
Sea Level Pressure 30.36 in    
Wind  
Wind Speed 4 mph (North)    
Max Wind Speed 8 mph    
Max Gust Speed -    
Visibility 9 miles    
Events      
Averages and records for this station are not official NWS values.
T = Trace of Precipitation, MM = Missing Value Source: NWS Daily Summary

Daily Weather History Graph

Daily Weather History Graph

Search for Another Location

Airport or City:

Trip Planner

Search our weather history database for the weather conditions in past years. The results will help you decide how hot, cold, wet, or windy it might be!

Date:

Astronomy

Feb. 03, 2014 Rise Set
Actual Time 7:46 AM EST 5:56 PM EST
Civil Twilight 7:17 AM EST 6:25 PM EST
Nautical Twilight 6:44 AM EST 6:58 PM EST
Astronomical Twilight 6:12 AM EST 7:31 PM EST
Moon 9:45 AM EST (2/3) 10:49 PM EST (2/3)
Length of Visible Light 11h 07m
Length of Day
10h 09m
Waxing Crescent, 19% of the Moon is Illuminated
Feb 3
Waxing Crescent
Feb 6
First Quarter
Feb 14
Full
Feb 22
Last Quarter
Mar 1
New

Hourly Weather History & Observations

Time (EST) Temp. Windchill Dew Point Humidity Pressure Visibility Wind Dir Wind Speed Gust Speed Precip Events Conditions
12:53 AM 19.9 °F 13.4 °F 12.9 °F 74% 30.26 in 10.0 mi North 4.6 mph - N/A   Overcast
1:53 AM 19.0 °F 10.0 °F 12.0 °F 74% 30.27 in 9.0 mi North 6.9 mph - N/A   Overcast
2:53 AM 18.0 °F 9.8 °F 10.9 °F 74% 30.28 in 10.0 mi North 5.8 mph - N/A   Mostly Cloudy
3:10 AM 17.6 °F 8.2 °F 10.4 °F 73% 30.24 in 10.0 mi North 6.9 mph - N/A   Partly Cloudy
3:53 AM 15.1 °F 6.4 °F 9.0 °F 77% 30.30 in 9.0 mi North 5.8 mph - N/A   Clear
4:53 AM 14.0 °F 2.9 °F 9.0 °F 80% 30.27 in 9.0 mi North 8.1 mph - N/A   Clear
5:53 AM 12.0 °F 2.7 °F 7.0 °F 80% 30.30 in 9.0 mi North 5.8 mph - N/A   Clear
6:53 AM 10.9 °F 4.7 °F 6.1 °F 81% 30.32 in 8.0 mi NNW 3.5 mph - N/A   Clear
7:53 AM 10.0 °F 3.6 °F 6.1 °F 84% 30.35 in 6.0 mi NNW 3.5 mph - N/A   Clear
8:53 AM 10.9 °F 4.7 °F 6.1 °F 81% 30.37 in 7.0 mi NNW 3.5 mph - N/A   Clear
9:53 AM 15.1 °F - 8.1 °F 74% 30.39 in 10.0 mi Calm Calm - N/A   Clear
10:53 AM 18.0 °F 9.8 °F 8.1 °F 65% 30.40 in 10.0 mi NE 5.8 mph - N/A   Clear
11:53 AM 21.0 °F 13.4 °F 10.0 °F 63% 30.39 in 10.0 mi NNE 5.8 mph - N/A   Clear
12:53 PM 23.0 °F 17.0 °F 10.9 °F 60% 30.36 in 10.0 mi NE 4.6 mph - N/A   Clear
1:53 PM 24.1 °F - 10.9 °F 57% 30.36 in 10.0 mi Calm Calm - N/A   Clear
2:53 PM 24.1 °F 18.2 °F 10.9 °F 57% 30.38 in 10.0 mi SW 4.6 mph - N/A   Clear
3:53 PM 23.0 °F 17.0 °F 10.0 °F 58% 30.39 in 10.0 mi SW 4.6 mph - N/A   Clear
4:53 PM 23.0 °F - 10.0 °F 58% 30.38 in 10.0 mi Calm Calm - N/A   Clear
5:53 PM 21.9 °F - 10.0 °F 60% 30.38 in 10.0 mi Calm Calm - N/A   Clear
6:53 PM 16.0 °F - 10.0 °F 77% 30.40 in 10.0 mi Calm Calm - N/A   Clear
7:53 PM 10.9 °F - 6.1 °F 81% 30.41 in 10.0 mi Calm Calm - N/A   Clear
8:53 PM 10.0 °F - 6.1 °F 84% 30.41 in 7.0 mi Calm Calm - N/A   Clear
9:53 PM 9.0 °F - 3.9 °F 80% 30.43 in 5.0 mi Calm Calm - N/A   Haze
10:53 PM 8.1 °F - 3.9 °F 83% 30.45 in 5.0 mi Calm Calm - N/A   Clear
11:53 PM 9.0 °F - 3.9 °F 80% 30.44 in 4.0 mi Calm Calm - N/A   Haze